Location: Benque
(43.2594°N, 0.9178°E)
Time: 18:01:15
(UTC+00:00)

ISS - Pass Details

Date: 24 January 2020
Orbit: 415 x 422 km, 51.6° (Epoch: 24 February)

Event Time Altitude Azimuth Distance (km) Brightness Sun altitude
Rises 18:55:00 0° 266° (W) 2,373 1.6 -21.4°
Reaches altitude 10° 18:57:17 10° 277° (W) 1,509 0.1 -21.8°
Enters shadow 19:00:07 29° 334° (NNW) 798 -2.2 -22.3°
